[[{"header":{"parameterUnit":"m.s-1","parameterCategory":1,"la1":30.2991,"la2":30.254,"lo1":-89.0895,"lo2":-89.0444,"dy":0.0017,"dx":0.0017,"nx":28,"ny":28,"refTime":"2024-04-13T21:00:00:Z","depth":0,"parameterNumber":2,"parameterNumberName":"U-component_of_WINDS"},"data":[0,0,0,0,0,0,0,0,0,0,0,0,0,0,0,0,0,0,0,0,0,0,0,0,0,0,0,0,0,0,0,0,0,0,0,0,0,0,0,0,0,0,0,0,0,0,0,0,0,0,0,0,0,0,0,0,0,0,-1.8344,-1.8344,0,-1.8335,-1.8335,-1.8335,-1.8252,-1.825,-1.8248,-1.8246,-1.8239,-1.824,-1.8242,0,0,0,0,0,0,0,0,0,0,0,0,0,-1.8291,-1.8293,-1.8344,-1.8344,-1.8344,-1.8335,-1.8335,-1.8335,-1.8253,-1.825,-1.8248,-1.8245,-1.8238,-1.824,-1.8242,0,0,0,0,0,0,0,0,0,0,0,0,0,-1.8302,-1.8293,-1.8344,-1.8302,-1.8298,-1.8335,-1.8335,-1.8335,-1.8253,-1.825,-1.8247,-1.8244,-1.8237,-1.824,-1.8242,-1.832,0,0,-1.825,-1.8251,0,0,0,0,0,0,0,0,-1.8301,-1.8304,-1.8308,-1.8305,-1.8301,-1.8292,-1.8314,-1.833,-1.8254,-1.827,-1.8246,-1.8243,-1.8259,-1.8259,-1.8265,-1.832,-1.8319,-1.825,-1.8252,-1.8253,-1.8254,0,0,0,0,0,0,0,-1.8301,-1.8304,-1.8341,-1.8308,-1.8304,-1.8284,-1.8282,-1.8316,-1.8282,-1.8269,-1.8263,-1.8263,-1.8256,-1.8262,-1.8264,-1.8319,-1.825,-1.8253,-1.8254,-1.8255,-1.8439,-1.8442,0,0,0,0,0,0,-1.8306,-1.8304,-1.8341,-1.834,-1.8293,-1.8287,-1.8285,-1.8298,-1.8281,-1.8276,-1.8265,-1.8259,-1.8259,-1.8261,-1.8263,-1.8354,-1.8253,-1.8255,-1.8257,-1.8435,-1.844,-1.8443,0,0,0,0,0,0,-1.8305,-1.831,-1.8341,-1.832,-1.8323,-1.8291,-1.8306,-1.8299,-1.8305,-1.8279,-1.8272,-1.8278,-1.8257,-1.826,-1.8307,-1.8353,-1.8257,-1.8259,-1.8432,-1.8437,-1.8441,-1.8536,0,0,0,0,0,0,-1.8304,-1.831,-1.8339,-1.8322,-1.8324,-1.8385,-1.8309,-1.8301,-1.831,-1.8301,-1.8289,-1.8284,-1.8255,-1.8303,-1.8309,-1.8354,-1.8261,-1.8427,-1.8434,-1.844,-1.8529,-1.8544,-1.8557,0,0,0,0,0,-1.8302,-1.8366,-1.8341,-1.8346,-1.836,-1.8388,-1.8389,-1.8354,-1.8314,-1.8343,-1.8326,-1.8284,-1.8346,-1.8309,-1.8315,-1.8362,-1.8424,-1.8432,-1.8439,-1.8523,-1.8541,-1.8556,0,0,0,0,0,0,-1.839,-1.8363,-1.8335,-1.8395,-1.8394,-1.8374,-1.8409,-1.8374,-1.8385,-1.8377,-1.8333,-1.8331,-1.8385,-1.8378,-1.8336,-1.8436,-1.8378,-1.8387,-1.844,-1.8457,-1.847,-1.8472,-1.8263,0,0,0,0,0,-1.8416,-1.8441,-1.8416,-1.8472,-1.8473,-1.8441,-1.8452,-1.8425,-1.8423,-1.8422,-1.8408,-1.8408,-1.8428,-1.8441,-1.8458,-1.8527,-1.8524,-1.8562,-1.8576,-1.8587,-1.8596,-1.8633,-1.8651,-1.8468,-1.8468,-1.8468,0,0,-1.8471,-1.8459,-1.8478,-1.8489,-1.8485,-1.8512,-1.8442,-1.8473,-1.8493,-1.8427,-1.8471,-1.8461,-1.8458,-1.8517,-1.8542,-1.8512,-1.8646,-1.8597,-1.8606,-1.8609,-1.8643,-1.866,-1.8676,-1.8473,-1.8472,-1.8471,0,0,-1.8585,-1.8578,-1.8624,-1.8622,-1.8617,-1.8596,-1.8607,-1.8592,-1.8583,-1.8626,-1.8577,-1.86,-1.8634,-1.8634,-1.8639,-1.8753,-1.8716,-1.876,-1.8833,-1.887,-1.8884,-1.8897,-1.8939,-1.8954,-1.8768,-1.8769,-1.8769,0,-1.8654,-1.8692,-1.8652,-1.8687,-1.8694,-1.8635,-1.8682,-1.8682,-1.8683,-1.8689,-1.8655,-1.8698,-1.8691,-1.875,-1.8778,-1.8783,-1.8795,-1.8762,-1.8885,-1.8897,-1.8909,-1.8948,-1.8964,-1.8774,-1.8773,-1.8773,-1.8772,0,-1.8778,-1.8805,-1.8843,-1.8845,-1.8856,-1.8897,-1.8864,-1.888,-1.8852,-1.8835,-1.888,-1.887,-1.8884,-1.8895,-1.8868,-1.8951,-1.8932,-1.8893,-1.8834,-1.8932,-1.8969,-1.8984,-1.8782,-1.878,-1.8778,-1.8777,0,0,-1.8947,-1.8927,-1.8942,-1.8943,-1.8933,-1.8954,-1.8992,-1.9005,-1.902,-1.9023,-1.9055,-1.9085,-1.9048,-1.9054,-1.9026,-1.9058,-1.9151,-1.9014,-1.9014,-1.9041,-1.9242,-1.9274,-1.9292,-1.9125,-1.9128,-1.913,-1.9243,0,-1.9058,-1.9122,-1.9087,-1.9157,-1.9182,-1.9126,-1.916,-1.9158,-1.9143,-1.9163,-1.9145,-1.9168,-1.9117,-1.9121,-1.915,-1.9134,-1.9191,-1.9125,-1.9156,-1.9157,-1.916,-1.931,-1.9343,-1.945,-1.9257,-1.9259,-1.9261,0,-1.9196,-1.9204,-1.9276,-1.9262,-1.9272,-1.9303,-1.9312,-1.9331,-1.9328,-1.9315,-1.9321,-1.9286,-1.9323,-1.9264,-1.9315,-1.9271,-1.9282,-1.9276,-1.9279,-1.9282,-1.9216,-1.9319,-1.9483,-1.95,-1.9283,-1.9281,-1.928,0,-1.9314,-1.9343,-1.939,-1.9393,-1.9377,-1.9401,-1.9395,-1.9389,-1.94,-1.9408,-1.9415,-1.9427,-1.9435,-1.9446,-1.9416,-1.9375,-1.9472,-1.9409,-1.9463,-1.9464,-1.9487,-1.9486,-1.9657,-1.9491,-1.9491,-1.9491,-1.9491,0,-1.9442,-1.9489,-1.9443,-1.9473,-1.9523,-1.9483,-1.9534,-1.9523,-1.9518,-1.9545,-1.9497,-1.9523,-1.948,-1.9502,-1.9479,-1.9526,-1.9529,-1.952,-1.9514,-1.9525,-1.9527,-1.9533,-1.9525,-1.9495,-1.9494,-1.9493,-1.9493,0,-1.9583,-1.9555,-1.9603,-1.9584,-1.9581,-1.9619,-1.9604,-1.963,-1.9611,-1.9646,-1.9651,-1.9623,-1.9646,-1.9616,-1.9637,-1.9621,-1.9685,-1.9667,-1.9687,-1.9682,-1.9737,-1.9733,-1.9919,-1.9942,-1.9761,-1.9763,-1.9764,0,-1.9668,-1.9702,-1.9688,-1.9702,-1.9699,-1.9723,-1.9733,-1.9695,-1.9708,-1.9707,-1.9734,-1.9753,-1.9767,-1.9807,-1.9788,-1.9804,-1.9787,-1.9851,-1.9789,-1.98,-1.9789,-1.9788,-1.9792,-1.9864,-1.9866,-1.9868,-1.9869,0,-1.9821,-1.9805,-1.9822,-1.9834,-1.9848,-1.9855,-1.986,-1.9874,-1.9834,-1.9851,-1.9874,-1.9885,-1.9906,-1.9926,-1.9937,-1.9932,-1.9895,-1.9889,-1.9902,-1.9915,-1.9926,-1.9922,-1.9723,-1.9885,-1.9883,-1.9882,-1.9881,-1.9881,-1.9937,-1.9965,-1.996,-1.998,-1.9979,-1.9985,-2.0009,-1.9993,-2.0012,-2.0026,-2.0002,-2.0032,-2.0029,-2.0039,-2.0038,-2.0061,-2.0034,-2.0053,-2.0058,-2.0064,-2.0073,-1.9921,-2.0063,-2.0063,-2.0062,-2.0062,-2.0061,0,-2.0089,-2.0082,-2.0102,-2.0109,-2.0126,-2.0088,-2.0091,-2.0107,-2.0134,-2.0134,-2.0148,-2.0175,-2.0195,-2.0178,-2.0194,-2.0216,-2.0199,-2.0221,-2.022,-2.022,-2.0096,-2.0084,-2.0235,-2.0235,-2.0235,-2.0234,-2.0234,-2.0234,-2.017,-2.0217,-2.02,-2.0246,-2.0239,-2.0268,-2.0273,-2.0278,-2.0278,-2.031,-2.0326,-2.0315,-2.0308,-2.0323,-2.034,-2.0334,-2.0343,-2.0372,-2.036,-2.0245,-2.0228,-2.0212,-2.02,-2.0373,-2.0374,-2.0482,-2.0483,-2.0484]},{"header":{"parameterUnit":"m.s-1","parameterCategory":1,"la1":30.2991,"la2":30.254,"lo1":-89.0895,"lo2":-89.0444,"dy":0.0017,"dx":0.0017,"nx":28,"ny":28,"refTime":"2024-04-13T21:00:00:Z","depth":0,"parameterNumber":3,"parameterNumberName":"V-component_of_WINDS"},"data":[0,0,0,0,0,0,0,0,0,0,0,0,0,0,0,0,0,0,0,0,0,0,0,0,0,0,0,0,0,0,0,0,0,0,0,0,0,0,0,0,0,0,0,0,0,0,0,0,0,0,0,0,0,0,0,0,0,0,-0.6846,-0.6846,0,-0.6865,-0.6865,-0.6865,-0.6844,-0.6843,-0.6843,-0.6842,-0.6861,-0.6862,-0.6864,0,0,0,0,0,0,0,0,0,0,0,0,0,-0.6789,-0.679,-0.6846,-0.6846,-0.6846,-0.6865,-0.6865,-0.6865,-0.6844,-0.6843,-0.6842,-0.6841,-0.6861,-0.6862,-0.6864,0,0,0,0,0,0,0,0,0,0,0,0,0,-0.6811,-0.679,-0.6845,-0.6838,-0.6837,-0.6865,-0.6865,-0.6866,-0.6844,-0.6843,-0.6842,-0.6841,-0.686,-0.6862,-0.6864,-0.69,0,0,-0.687,-0.6871,0,0,0,0,0,0,0,0,-0.681,-0.6813,-0.6839,-0.6838,-0.6838,-0.6851,-0.6852,-0.6877,-0.6845,-0.6842,-0.6842,-0.684,-0.6859,-0.6861,-0.6867,-0.6901,-0.6902,-0.687,-0.6871,-0.6872,-0.6873,0,0,0,0,0,0,0,-0.6808,-0.6812,-0.6853,-0.6839,-0.6839,-0.6833,-0.6835,-0.6857,-0.6857,-0.6842,-0.684,-0.6843,-0.6858,-0.6865,-0.6867,-0.6902,-0.687,-0.6872,-0.6873,-0.6874,-0.6966,-0.6967,0,0,0,0,0,0,-0.6808,-0.6811,-0.6853,-0.6854,-0.6821,-0.6835,-0.6837,-0.6848,-0.6857,-0.6857,-0.6844,-0.6842,-0.6863,-0.6865,-0.6868,-0.6911,-0.6872,-0.6874,-0.6875,-0.6965,-0.6966,-0.6968,0,0,0,0,0,0,-0.6807,-0.6812,-0.6852,-0.6832,-0.6837,-0.6837,-0.685,-0.6849,-0.6856,-0.6858,-0.6858,-0.6851,-0.6862,-0.6865,-0.6892,-0.6911,-0.6875,-0.6876,-0.6963,-0.6965,-0.6967,-0.6996,0,0,0,0,0,0,-0.6805,-0.6812,-0.6826,-0.6833,-0.6838,-0.6876,-0.6851,-0.685,-0.6859,-0.6857,-0.6865,-0.6865,-0.6861,-0.6889,-0.6894,-0.6913,-0.6878,-0.6962,-0.6964,-0.6966,-0.6994,-0.6999,-0.7004,0,0,0,0,0,-0.6803,-0.6833,-0.6827,-0.6832,-0.6856,-0.6877,-0.688,-0.6875,-0.6861,-0.6875,-0.6876,-0.6865,-0.6908,-0.6892,-0.6897,-0.6917,-0.696,-0.6963,-0.6966,-0.6992,-0.6998,-0.7004,0,0,0,0,0,0,-0.6829,-0.6834,-0.6827,-0.686,-0.6868,-0.6874,-0.6891,-0.6883,-0.6895,-0.6892,-0.6885,-0.6887,-0.6916,-0.6919,-0.6902,-0.6952,-0.6932,-0.6936,-0.6949,-0.6956,-0.696,-0.6959,-0.6879,0,0,0,0,0,-0.6838,-0.6856,-0.6859,-0.6888,-0.6893,-0.6891,-0.6901,-0.6896,-0.6904,-0.6908,-0.6911,-0.6919,-0.6935,-0.6945,-0.6959,-0.6994,-0.6995,-0.701,-0.7015,-0.7019,-0.7023,-0.704,-0.7047,-0.6977,-0.6977,-0.6977,0,0,-0.6858,-0.6863,-0.6875,-0.6893,-0.6899,-0.6917,-0.6895,-0.6915,-0.6928,-0.6911,-0.6937,-0.6939,-0.6948,-0.6979,-0.6992,-0.6982,-0.7042,-0.7022,-0.7026,-0.7027,-0.7044,-0.7051,-0.7057,-0.6979,-0.6979,-0.6979,0,0,-0.6903,-0.6909,-0.6934,-0.694,-0.6949,-0.6948,-0.6954,-0.696,-0.6961,-0.6987,-0.6974,-0.6989,-0.7016,-0.7023,-0.703,-0.7076,-0.7066,-0.7081,-0.7107,-0.7125,-0.713,-0.7135,-0.7152,-0.7158,-0.7084,-0.7085,-0.7085,0,-0.6927,-0.6954,-0.6947,-0.6968,-0.6977,-0.6961,-0.6986,-0.6992,-0.7006,-0.7012,-0.7,-0.7033,-0.7038,-0.7069,-0.7081,-0.7087,-0.7093,-0.708,-0.713,-0.7135,-0.7139,-0.7155,-0.7161,-0.7086,-0.7086,-0.7086,-0.7086,0,-0.6982,-0.7001,-0.7019,-0.7033,-0.7043,-0.7066,-0.7062,-0.7073,-0.7067,-0.7067,-0.7093,-0.7098,-0.7112,-0.7119,-0.7114,-0.715,-0.7144,-0.7131,-0.7111,-0.7148,-0.7162,-0.7168,-0.7089,-0.7088,-0.7088,-0.7087,0,0,-0.7046,-0.7054,-0.7061,-0.7067,-0.7075,-0.7089,-0.711,-0.7125,-0.7135,-0.7144,-0.7162,-0.7184,-0.7172,-0.718,-0.7175,-0.719,-0.7226,-0.7175,-0.7175,-0.7185,-0.7267,-0.7276,-0.7284,-0.7219,-0.722,-0.7221,-0.7266,0,-0.7091,-0.7129,-0.7123,-0.7159,-0.7176,-0.7161,-0.718,-0.7187,-0.7187,-0.7201,-0.72,-0.7216,-0.7199,-0.7204,-0.7218,-0.7219,-0.7243,-0.7215,-0.7235,-0.7236,-0.7235,-0.7291,-0.7302,-0.7344,-0.7272,-0.7273,-0.7273,0,-0.715,-0.7161,-0.7199,-0.7204,-0.7211,-0.7228,-0.724,-0.7254,-0.7261,-0.726,-0.7268,-0.726,-0.728,-0.7259,-0.7287,-0.7269,-0.7276,-0.7278,-0.7279,-0.7281,-0.7258,-0.7296,-0.7357,-0.7364,-0.7282,-0.7281,-0.7281,0,-0.7193,-0.7217,-0.7243,-0.7248,-0.7255,-0.7267,-0.727,-0.7276,-0.7285,-0.7295,-0.7301,-0.7314,-0.7321,-0.733,-0.7325,-0.731,-0.7355,-0.7333,-0.7354,-0.7354,-0.7365,-0.7365,-0.743,-0.7369,-0.7369,-0.7369,-0.7369,0,-0.7245,-0.7269,-0.7262,-0.7278,-0.7304,-0.7296,-0.7322,-0.7324,-0.7329,-0.7344,-0.7332,-0.7347,-0.7339,-0.7353,-0.7349,-0.7373,-0.7376,-0.7375,-0.7374,-0.7377,-0.7377,-0.7382,-0.738,-0.737,-0.737,-0.737,-0.7369,0,-0.7298,-0.7294,-0.7321,-0.7325,-0.7326,-0.7345,-0.7348,-0.7363,-0.7361,-0.7381,-0.7385,-0.7382,-0.7398,-0.7394,-0.7411,-0.7408,-0.7439,-0.7433,-0.7436,-0.7435,-0.7457,-0.7455,-0.7528,-0.7538,-0.7471,-0.7471,-0.7472,0,-0.7331,-0.7349,-0.7355,-0.7364,-0.7368,-0.7384,-0.7392,-0.7385,-0.7395,-0.7404,-0.7417,-0.7431,-0.7443,-0.7469,-0.7468,-0.7481,-0.7476,-0.7501,-0.7478,-0.748,-0.7477,-0.7476,-0.7478,-0.7506,-0.7507,-0.7507,-0.7508,0,-0.7392,-0.7389,-0.7402,-0.7415,-0.7425,-0.7435,-0.7443,-0.7452,-0.7445,-0.7456,-0.7472,-0.7481,-0.7498,-0.7512,-0.7524,-0.7526,-0.7516,-0.7515,-0.752,-0.7524,-0.7525,-0.7525,-0.7449,-0.7513,-0.7513,-0.7512,-0.7512,-0.7512,-0.7436,-0.7451,-0.7457,-0.7472,-0.7477,-0.7485,-0.7499,-0.7499,-0.7512,-0.7526,-0.752,-0.7538,-0.7544,-0.7558,-0.7562,-0.7576,-0.7567,-0.7575,-0.7577,-0.7579,-0.7582,-0.7522,-0.7578,-0.7578,-0.7578,-0.7578,-0.7577,0,-0.7497,-0.7499,-0.7513,-0.7525,-0.7536,-0.7525,-0.7533,-0.7543,-0.756,-0.7566,-0.7577,-0.7595,-0.7609,-0.7609,-0.7622,-0.7633,-0.7628,-0.7636,-0.7636,-0.7636,-0.759,-0.7584,-0.764,-0.764,-0.764,-0.764,-0.764,-0.764,-0.7529,-0.7554,-0.7552,-0.7579,-0.7581,-0.7599,-0.7604,-0.7611,-0.7616,-0.7637,-0.7648,-0.7648,-0.7651,-0.7664,-0.7676,-0.7676,-0.7681,-0.7691,-0.7689,-0.7646,-0.764,-0.7634,-0.7628,-0.7692,-0.7692,-0.7734,-0.7735,-0.7735]}]]